Eau Claire, Wisconsin
Current Conditions -  °F | °C
As of 3:14 PM on Sunday 21 Dec 2014 (Local Time) from KEAU Reporting Station
Haze Haze  
Wind Chill: 28°   Ceiling: 500
Heat Index: 36°   Visibility: 2mi
Dew Point: 34°   Wind: 12mph
Humidity: 93%   Direction: 160°SSE
Pressure: 29.82"   Gusts: NA
Location:  44.82°N, 91.5°W
Report Text: KEAU 212114Z 16010KT 2SM UP BR OVC005 02/01 A2982 RMK AO2 RAB11E12UPB12 P0000 T00220011
Loading
Personal Weather Stations






























Interactive Weather Map New forecast layout! Learn more

10-Day Weather Forecast

Advertisements
Track Severe Weather on mobile